Time,TemperatureF,DewpointF,PressureIn,WindDirection,WindDirectionDegrees,WindSpeedMPH,WindSpeedGustMPH,Humidity,HourlyPrecipIn,Conditions,Clouds,dailyrainin,SoftwareType,DateUTC
2013-05-06 00:01:00,62.4,60.3,29.95,East,87,10.0,13.0,93,0.00,,---,0.00,VWS V14.00,2013-05-06 04:01:00,
2013-05-06 00:06:00,62.4,60.3,29.95,ENE,73,10.0,13.0,93,0.00,,---,0.00,VWS V14.00,2013-05-06 04:06:00,
2013-05-06 00:11:00,62.4,60.3,29.95,ENE,75,10.0,13.0,93,0.00,,---,0.00,VWS V14.00,2013-05-06 04:11:00,
2013-05-06 00:16:00,62.5,60.5,29.95,ENE,70,9.0,14.0,93,0.00,,---,0.00,VWS V14.00,2013-05-06 04:16:00,
2013-05-06 00:21:00,62.6,60.5,29.95,ENE,63,9.0,14.0,93,0.00,,---,0.00,VWS V14.00,2013-05-06 04:21:00,
2013-05-06 00:26:00,62.7,60.7,29.95,ENE,75,10.0,14.0,93,0.00,,---,0.00,VWS V14.00,2013-05-06 04:26:00,
2013-05-06 00:31:00,63.0,61.0,29.95,ENE,73,10.0,15.0,93,0.00,,---,0.00,VWS V14.00,2013-05-06 04:31:00,
2013-05-06 00:36:00,63.2,61.2,29.95,East,80,5.0,15.0,93,0.00,,---,0.00,VWS V14.00,2013-05-06 04:36:00,
2013-05-06 00:41:00,63.1,60.7,29.94,ENE,62,8.0,15.0,92,0.00,,---,0.00,VWS V14.00,2013-05-06 04:41:00,
2013-05-06 00:46:00,63.0,60.6,29.94,ENE,72,8.0,15.0,92,0.00,,---,0.00,VWS V14.00,2013-05-06 04:46:00,
2013-05-06 00:51:00,63.0,60.6,29.93,ENE,59,7.0,15.0,92,0.00,,---,0.00,VWS V14.00,2013-05-06 04:51:00,
2013-05-06 00:56:00,62.9,60.5,29.93,ENE,71,7.0,15.0,92,0.00,,---,0.00,VWS V14.00,2013-05-06 04:56:00,
2013-05-06 01:01:00,62.9,60.5,29.93,ENE,62,7.0,11.0,92,0.00,,---,0.00,VWS V14.00,2013-05-06 05:01:00,
2013-05-06 01:06:00,62.9,60.5,29.93,East,80,5.0,11.0,92,0.00,,---,0.00,VWS V14.00,2013-05-06 05:06:00,
2013-05-06 01:11:00,63.1,60.7,29.94,East,88,0.0,11.0,92,0.00,,---,0.00,VWS V14.00,2013-05-06 05:11:00,
2013-05-06 01:16:00,63.2,60.5,29.94,NE,41,1.0,11.0,91,0.00,,---,0.00,VWS V14.00,2013-05-06 05:16:00,
2013-05-06 01:21:00,63.2,60.5,29.94,ENE,71,2.0,11.0,91,0.00,,---,0.00,VWS V14.00,2013-05-06 05:21:00,
2013-05-06 01:26:00,63.3,60.6,29.94,NE,55,2.0,11.0,91,0.00,,---,0.00,VWS V14.00,2013-05-06 05:26:00,
2013-05-06 01:31:00,63.3,60.6,29.93,East,100,6.0,7.0,91,0.00,,---,0.00,VWS V14.00,2013-05-06 05:31:00,
2013-05-06 01:36:00,63.3,60.3,29.93,East,96,5.0,7.0,90,0.00,,---,0.00,VWS V14.00,2013-05-06 05:36:00,
2013-05-06 01:41:00,63.4,60.7,29.93,ESE,114,5.0,9.0,91,0.00,,---,0.00,VWS V14.00,2013-05-06 05:41:00,
2013-05-06 01:46:00,63.6,60.6,29.92,ESE,113,9.0,12.0,90,0.00,,---,0.00,VWS V14.00,2013-05-06 05:46:00,
2013-05-06 01:51:00,64.0,60.7,29.92,ESE,102,11.0,12.0,89,0.00,,---,0.00,VWS V14.00,2013-05-06 05:51:00,
2013-05-06 01:56:00,64.2,60.6,29.92,ESE,114,6.0,13.0,88,0.00,,---,0.01,VWS V14.00,2013-05-06 05:56:00,
2013-05-06 02:01:00,64.3,60.7,29.93,ESE,117,6.0,10.0,88,0.00,,---,0.01,VWS V14.00,2013-05-06 06:01:00,
2013-05-06 02:06:00,64.3,60.7,29.93,ESE,123,4.0,10.0,88,0.00,,---,0.01,VWS V14.00,2013-05-06 06:06:00,
2013-05-06 02:11:00,64.3,60.3,29.92,East,97,4.0,10.0,87,0.00,,---,0.01,VWS V14.00,2013-05-06 06:11:00,
2013-05-06 02:16:00,64.3,60.3,29.92,ESE,108,9.0,11.0,87,0.00,,---,0.01,VWS V14.00,2013-05-06 06:16:00,
2013-05-06 02:21:00,64.5,60.5,29.92,ENE,77,8.0,11.0,87,0.00,,---,0.01,VWS V14.00,2013-05-06 06:21:00,
2013-05-06 02:26:00,64.8,60.5,29.92,East,95,4.0,11.0,86,0.00,,---,0.01,VWS V14.00,2013-05-06 06:26:00,
2013-05-06 02:31:00,64.6,60.3,29.92,ESE,117,8.0,9.0,86,0.00,,---,0.01,VWS V14.00,2013-05-06 06:31:00,
2013-05-06 02:36:00,64.5,60.5,29.92,SE,132,11.0,14.0,87,0.00,,---,0.01,VWS V14.00,2013-05-06 06:36:00,
2013-05-06 02:41:00,64.9,60.6,29.91,SE,126,15.0,16.0,86,0.00,,---,0.01,VWS V14.00,2013-05-06 06:41:00,
2013-05-06 02:46:00,65.0,60.7,29.91,SE,131,10.0,16.0,86,0.00,,---,0.02,VWS V14.00,2013-05-06 06:46:00,
2013-05-06 02:51:00,64.7,60.4,29.91,SE,145,11.0,16.0,86,0.00,,---,0.02,VWS V14.00,2013-05-06 06:51:00,
2013-05-06 02:56:00,64.7,60.8,29.91,ESE,114,12.0,16.0,87,0.00,,---,0.02,VWS V14.00,2013-05-06 06:56:00,
2013-05-06 03:01:00,64.7,60.8,29.91,ESE,120,10.0,13.0,87,0.00,,---,0.02,VWS V14.00,2013-05-06 07:01:00,
2013-05-06 03:06:00,64.7,60.8,29.91,ESE,122,9.0,14.0,87,0.00,,---,0.02,VWS V14.00,2013-05-06 07:06:00,
2013-05-06 03:11:00,64.7,60.8,29.91,ESE,121,11.0,14.0,87,0.00,,---,0.02,VWS V14.00,2013-05-06 07:11:00,
2013-05-06 03:16:00,64.9,60.9,29.90,ESE,123,10.0,15.0,87,0.00,,---,0.02,VWS V14.00,2013-05-06 07:16:00,
2013-05-06 03:21:00,65.0,61.0,29.90,SE,137,12.0,15.0,87,0.00,,---,0.02,VWS V14.00,2013-05-06 07:21:00,
2013-05-06 03:26:00,65.1,61.1,29.90,SE,129,7.0,15.0,87,0.00,,---,0.02,VWS V14.00,2013-05-06 07:26:00,
2013-05-06 03:31:00,65.1,61.1,29.90,SE,132,11.0,14.0,87,0.00,,---,0.02,VWS V14.00,2013-05-06 07:31:00,
2013-05-06 03:36:00,65.5,61.2,29.90,ESE,114,14.0,19.0,86,0.00,,---,0.02,VWS V14.00,2013-05-06 07:36:00,
2013-05-06 03:41:00,65.5,61.2,29.90,ESE,118,16.0,19.0,86,0.00,,---,0.02,VWS V14.00,2013-05-06 07:41:00,
2013-05-06 03:46:00,65.5,61.2,29.89,ESE,121,14.0,19.0,86,0.00,,---,0.02,VWS V14.00,2013-05-06 07:46:00,
2013-05-06 03:51:00,65.4,61.4,29.89,East,95,13.0,19.0,87,0.00,,---,0.02,VWS V14.00,2013-05-06 07:51:00,
2013-05-06 03:56:00,65.4,61.4,29.89,ESE,116,19.0,21.0,87,0.00,,---,0.02,VWS V14.00,2013-05-06 07:56:00,
2013-05-06 04:01:00,65.6,61.6,29.89,ESE,118,16.0,20.0,87,0.00,,---,0.02,VWS V14.00,2013-05-06 08:01:00,
2013-05-06 04:06:00,65.6,61.6,29.90,ESE,115,14.0,20.0,87,0.00,,---,0.02,VWS V14.00,2013-05-06 08:06:00,
2013-05-06 04:11:00,65.4,61.8,29.90,ESE,104,14.0,20.0,88,0.00,,---,0.02,VWS V14.00,2013-05-06 08:11:00,
2013-05-06 04:16:00,65.3,61.7,29.90,SE,131,12.0,20.0,88,0.00,,---,0.02,VWS V14.00,2013-05-06 08:16:00,
2013-05-06 04:21:00,65.3,61.7,29.90,ESE,122,13.0,20.0,88,0.00,,---,0.02,VWS V14.00,2013-05-06 08:21:00,
2013-05-06 04:26:00,65.2,61.6,29.90,SE,129,10.0,20.0,88,0.00,,---,0.02,VWS V14.00,2013-05-06 08:26:00,
2013-05-06 04:31:00,65.0,61.7,29.90,ESE,115,10.0,16.0,89,0.00,,---,0.02,VWS V14.00,2013-05-06 08:31:00,
2013-05-06 04:36:00,64.6,61.3,29.90,ESE,115,7.0,16.0,89,0.00,,---,0.02,VWS V14.00,2013-05-06 08:36:00,
2013-05-06 04:41:00,64.4,61.4,29.90,SE,127,8.0,16.0,90,0.00,,---,0.02,VWS V14.00,2013-05-06 08:41:00,
2013-05-06 04:46:00,64.2,61.2,29.90,SE,127,9.0,16.0,90,0.00,,---,0.02,VWS V14.00,2013-05-06 08:46:00,
2013-05-06 04:51:00,64.1,61.4,29.90,ESE,116,7.0,16.0,91,0.00,,---,0.02,VWS V14.00,2013-05-06 08:51:00,
2013-05-06 04:56:00,64.1,61.4,29.90,SE,129,5.0,16.0,91,0.00,,---,0.02,VWS V14.00,2013-05-06 08:56:00,
2013-05-06 05:01:00,64.0,61.0,29.90,ESE,103,6.0,11.0,90,0.00,,---,0.02,VWS V14.00,2013-05-06 09:01:00,
2013-05-06 05:06:00,63.9,60.9,29.90,ESE,105,6.0,11.0,90,0.00,,---,0.02,VWS V14.00,2013-05-06 09:06:00,
2013-05-06 05:11:00,63.9,61.2,29.90,East,98,5.0,11.0,91,0.00,,---,0.02,VWS V14.00,2013-05-06 09:11:00,
2013-05-06 05:16:00,63.8,61.1,29.90,ESE,106,5.0,11.0,91,0.00,,---,0.02,VWS V14.00,2013-05-06 09:16:00,
2013-05-06 05:21:00,63.8,61.1,29.89,East,98,6.0,11.0,91,0.00,,---,0.02,VWS V14.00,2013-05-06 09:21:00,
2013-05-06 05:26:00,63.9,61.2,29.89,ESE,114,6.0,11.0,91,0.00,,---,0.03,VWS V14.00,2013-05-06 09:26:00,
2013-05-06 05:31:00,63.9,61.2,29.90,SE,129,6.0,9.0,91,0.00,,---,0.03,VWS V14.00,2013-05-06 09:31:00,
2013-05-06 05:36:00,63.9,61.2,29.90,SE,131,5.0,10.0,91,0.00,,---,0.03,VWS V14.00,2013-05-06 09:36:00,
2013-05-06 05:41:00,63.8,60.8,29.90,ESE,110,6.0,10.0,90,0.00,,---,0.03,VWS V14.00,2013-05-06 09:41:00,
2013-05-06 05:46:00,63.8,60.8,29.90,ESE,110,4.0,10.0,90,0.00,,---,0.03,VWS V14.00,2013-05-06 09:46:00,
2013-05-06 05:51:00,63.6,60.6,29.90,ESE,110,5.0,10.0,90,0.00,,---,0.03,VWS V14.00,2013-05-06 09:51:00,
2013-05-06 05:56:00,63.5,60.5,29.90,ESE,117,4.0,10.0,90,0.00,,---,0.03,VWS V14.00,2013-05-06 09:56:00,
2013-05-06 06:01:00,63.5,60.5,29.90,SE,127,3.0,5.0,90,0.00,,---,0.03,VWS V14.00,2013-05-06 10:01:00,
2013-05-06 06:06:00,63.5,60.8,29.90,ESE,118,5.0,5.0,91,0.00,,---,0.03,VWS V14.00,2013-05-06 10:06:00,
2013-05-06 06:11:00,63.5,60.5,29.90,SE,128,3.0,6.0,90,0.00,,---,0.03,VWS V14.00,2013-05-06 10:11:00,
2013-05-06 06:16:00,63.5,60.8,29.90,ESE,112,4.0,8.0,91,0.00,,---,0.03,VWS V14.00,2013-05-06 10:16:00,
2013-05-06 06:21:00,63.6,60.9,29.90,East,100,5.0,9.0,91,0.00,,---,0.03,VWS V14.00,2013-05-06 10:21:00,
2013-05-06 06:26:00,63.9,61.2,29.90,ESE,118,5.0,9.0,91,0.00,,---,0.03,VWS V14.00,2013-05-06 10:26:00,
2013-05-06 06:31:00,64.1,61.4,29.90,ESE,123,5.0,8.0,91,0.00,,---,0.03,VWS V14.00,2013-05-06 10:31:00,
2013-05-06 06:36:00,64.3,61.6,29.90,ESE,110,6.0,9.0,91,0.00,,---,0.03,VWS V14.00,2013-05-06 10:36:00,
2013-05-06 06:41:00,64.7,61.7,29.90,ESE,123,7.0,12.0,90,0.00,,---,0.03,VWS V14.00,2013-05-06 10:41:00,
2013-05-06 06:46:00,64.9,61.9,29.91,SE,127,7.0,12.0,90,0.00,,---,0.03,VWS V14.00,2013-05-06 10:46:00,
2013-05-06 06:51:00,65.2,62.2,29.91,SE,132,9.0,12.0,90,0.00,,---,0.03,VWS V14.00,2013-05-06 10:51:00,
2013-05-06 06:56:00,65.4,62.1,29.91,SE,125,6.0,12.0,89,0.00,,---,0.03,VWS V14.00,2013-05-06 10:56:00,
2013-05-06 07:01:00,65.5,61.9,29.91,ESE,121,7.0,12.0,88,0.00,,---,0.03,VWS V14.00,2013-05-06 11:01:00,
2013-05-06 07:06:00,65.5,61.5,29.91,SE,126,7.0,15.0,87,0.00,,---,0.03,VWS V14.00,2013-05-06 11:06:00,
2013-05-06 07:11:00,65.5,61.2,29.91,ESE,116,7.0,15.0,86,0.00,,---,0.03,VWS V14.00,2013-05-06 11:11:00,
2013-05-06 07:16:00,65.8,60.5,29.91,SE,133,15.0,18.0,83,0.00,,---,0.03,VWS V14.00,2013-05-06 11:16:00,
2013-05-06 07:21:00,66.5,60.2,29.91,ESE,114,13.0,18.0,80,0.00,,---,0.03,VWS V14.00,2013-05-06 11:21:00,
2013-05-06 07:26:00,66.8,60.4,29.91,ESE,121,11.0,18.0,80,0.00,,---,0.03,VWS V14.00,2013-05-06 11:26:00,
2013-05-06 07:31:00,66.5,61.2,29.92,SE,141,17.0,23.0,83,0.00,,---,0.04,VWS V14.00,2013-05-06 11:31:00,
2013-05-06 07:36:00,65.0,61.4,29.92,SE,144,9.0,23.0,88,0.19,,---,0.06,VWS V14.00,2013-05-06 11:36:00,
2013-05-06 07:41:00,64.5,61.5,29.92,SE,131,6.0,23.0,90,0.12,,---,0.07,VWS V14.00,2013-05-06 11:41:00,
2013-05-06 07:46:00,64.5,61.8,29.91,ESE,121,7.0,23.0,91,0.07,,---,0.07,VWS V14.00,2013-05-06 11:46:00,
2013-05-06 07:51:00,64.6,61.9,29.91,ESE,118,4.0,23.0,91,0.05,,---,0.07,VWS V14.00,2013-05-06 11:51:00,
2013-05-06 07:56:00,64.9,62.2,29.92,SSE,147,7.0,23.0,91,0.00,,---,0.07,VWS V14.00,2013-05-06 11:56:00,
2013-05-06 08:01:00,65.4,62.4,29.92,ESE,123,7.0,11.0,90,0.00,,---,0.07,VWS V14.00,2013-05-06 12:01:00,
2013-05-06 08:06:00,65.8,62.5,29.92,SE,131,6.0,11.0,89,0.00,,---,0.07,VWS V14.00,2013-05-06 12:06:00,
2013-05-06 08:11:00,66.1,62.1,29.92,SE,143,11.0,12.0,87,0.00,,---,0.07,VWS V14.00,2013-05-06 12:11:00,
2013-05-06 08:16:00,66.4,62.4,29.92,SE,135,10.0,13.0,87,0.00,,---,0.07,VWS V14.00,2013-05-06 12:16:00,
2013-05-06 08:21:00,66.7,62.7,29.92,ESE,118,8.0,13.0,87,0.00,,---,0.07,VWS V14.00,2013-05-06 12:21:00,
2013-05-06 08:26:00,66.7,62.4,29.92,ESE,118,10.0,13.0,86,0.00,,---,0.07,VWS V14.00,2013-05-06 12:26:00,
2013-05-06 08:31:00,67.1,62.5,29.92,SE,128,10.0,13.0,85,0.00,,---,0.07,VWS V14.00,2013-05-06 12:31:00,
2013-05-06 08:36:00,67.2,62.2,29.92,SE,133,12.0,14.0,84,0.00,,---,0.07,VWS V14.00,2013-05-06 12:36:00,
2013-05-06 08:41:00,67.3,62.3,29.92,SE,128,9.0,15.0,84,0.00,,---,0.07,VWS V14.00,2013-05-06 12:41:00,
2013-05-06 08:46:00,67.6,62.6,29.92,SE,131,13.0,18.0,84,0.00,,---,0.07,VWS V14.00,2013-05-06 12:46:00,
2013-05-06 08:51:00,67.6,62.6,29.93,SE,143,10.0,18.0,84,0.00,,---,0.07,VWS V14.00,2013-05-06 12:51:00,
2013-05-06 08:57:00,67.6,62.6,29.93,SE,125,11.0,18.0,84,0.00,,---,0.07,VWS V14.00,2013-05-06 12:57:00,
2013-05-06 09:02:00,67.6,62.6,29.93,SE,129,6.0,16.0,84,0.00,,---,0.07,VWS V14.00,2013-05-06 13:02:00,
2013-05-06 09:07:00,67.7,62.7,29.93,ESE,121,12.0,16.0,84,0.00,,---,0.07,VWS V14.00,2013-05-06 13:07:00,
2013-05-06 09:12:00,67.8,62.5,29.93,SE,129,9.0,16.0,83,0.00,,---,0.07,VWS V14.00,2013-05-06 13:12:00,
2013-05-06 09:17:00,67.9,62.9,29.92,ESE,116,14.0,16.0,84,0.00,,---,0.07,VWS V14.00,2013-05-06 13:17:00,
2013-05-06 09:22:00,68.4,63.0,29.92,ESE,119,10.0,16.0,83,0.00,,---,0.07,VWS V14.00,2013-05-06 13:22:00,
2013-05-06 09:27:00,68.3,62.9,29.92,SE,131,11.0,17.0,83,0.00,,---,0.07,VWS V14.00,2013-05-06 13:27:00,
2013-05-06 09:32:00,67.3,62.6,29.92,ESE,105,10.0,16.0,85,0.00,,---,0.08,VWS V14.00,2013-05-06 13:32:00,
2013-05-06 09:37:00,66.7,62.7,29.93,ESE,110,5.0,16.0,87,0.00,,---,0.08,VWS V14.00,2013-05-06 13:37:00,
2013-05-06 09:42:00,66.7,63.0,29.93,ESE,103,8.0,16.0,88,0.00,,---,0.08,VWS V14.00,2013-05-06 13:42:00,
2013-05-06 09:47:00,66.7,63.0,29.92,ESE,120,11.0,17.0,88,0.00,,---,0.08,VWS V14.00,2013-05-06 13:47:00,
2013-05-06 09:52:00,66.9,62.9,29.92,ESE,120,15.0,17.0,87,0.00,,---,0.08,VWS V14.00,2013-05-06 13:52:00,
2013-05-06 09:57:00,66.8,62.8,29.92,ESE,117,14.0,19.0,87,0.00,,---,0.08,VWS V14.00,2013-05-06 13:57:00,
2013-05-06 10:02:00,66.7,63.0,29.92,SE,129,16.0,16.0,88,0.00,,---,0.08,VWS V14.00,2013-05-06 14:02:00,
2013-05-06 10:07:00,66.7,62.7,29.92,ESE,109,11.0,18.0,87,0.00,,---,0.08,VWS V14.00,2013-05-06 14:07:00,
2013-05-06 10:12:00,66.8,62.8,29.92,ESE,114,14.0,22.0,87,0.00,,---,0.08,VWS V14.00,2013-05-06 14:12:00,
2013-05-06 10:17:00,66.3,62.6,29.92,ESE,111,16.0,22.0,88,0.00,,---,0.09,VWS V14.00,2013-05-06 14:17:00,
2013-05-06 10:22:00,66.1,62.8,29.92,ESE,108,13.0,22.0,89,0.00,,---,0.09,VWS V14.00,2013-05-06 14:22:00,
2013-05-06 10:27:00,66.0,62.7,29.92,ESE,110,10.0,22.0,89,0.00,,---,0.09,VWS V14.00,2013-05-06 14:27:00,
2013-05-06 10:32:00,66.0,62.7,29.92,SE,126,11.0,13.0,89,0.00,,---,0.09,VWS V14.00,2013-05-06 14:32:00,
2013-05-06 10:37:00,66.0,62.7,29.92,East,100,11.0,17.0,89,0.00,,---,0.09,VWS V14.00,2013-05-06 14:37:00,
2013-05-06 10:42:00,66.0,62.7,29.92,ESE,116,12.0,18.0,89,0.00,,---,0.09,VWS V14.00,2013-05-06 14:42:00,
2013-05-06 10:47:00,65.8,62.8,29.92,ESE,108,9.0,18.0,90,0.24,,---,0.12,VWS V14.00,2013-05-06 14:47:00,
2013-05-06 10:52:00,65.5,62.8,29.91,East,91,9.0,18.0,91,0.08,,---,0.12,VWS V14.00,2013-05-06 14:52:00,
2013-05-06 10:57:00,65.4,63.0,29.91,ESE,106,11.0,18.0,92,0.05,,---,0.12,VWS V14.00,2013-05-06 14:57:00,
2013-05-06 11:02:00,65.4,63.0,29.91,ESE,106,11.0,14.0,92,0.00,,---,0.12,VWS V14.00,2013-05-06 15:02:00,
2013-05-06 11:07:00,65.6,63.2,29.91,ESE,112,9.0,17.0,92,0.00,,---,0.12,VWS V14.00,2013-05-06 15:07:00,
2013-05-06 11:12:00,65.7,63.3,29.91,ESE,109,11.0,17.0,92,0.00,,---,0.12,VWS V14.00,2013-05-06 15:12:00,
2013-05-06 11:17:00,65.7,63.3,29.90,ESE,115,17.0,20.0,92,0.00,,---,0.12,VWS V14.00,2013-05-06 15:17:00,
2013-05-06 11:22:00,65.7,63.0,29.90,East,86,13.0,20.0,91,0.00,,---,0.12,VWS V14.00,2013-05-06 15:22:00,
2013-05-06 11:27:00,65.7,63.0,29.90,East,89,15.0,20.0,91,0.00,,---,0.12,VWS V14.00,2013-05-06 15:27:00,
2013-05-06 11:32:00,65.9,63.2,29.91,SE,132,18.0,20.0,91,0.00,,---,0.12,VWS V14.00,2013-05-06 15:32:00,
2013-05-06 11:37:00,66.0,63.0,29.90,East,96,12.0,20.0,90,0.00,,---,0.12,VWS V14.00,2013-05-06 15:37:00,
2013-05-06 11:42:00,65.8,63.1,29.91,ESE,113,16.0,20.0,91,0.00,,---,0.12,VWS V14.00,2013-05-06 15:42:00,
2013-05-06 11:47:00,65.7,63.0,29.92,ESE,117,11.0,20.0,91,0.00,,---,0.13,VWS V14.00,2013-05-06 15:47:00,
2013-05-06 11:52:00,65.7,63.3,29.92,East,98,11.0,20.0,92,0.00,,---,0.13,VWS V14.00,2013-05-06 15:52:00,
2013-05-06 11:57:00,65.7,63.3,29.93,SE,143,14.0,20.0,92,0.00,,---,0.13,VWS V14.00,2013-05-06 15:57:00,
2013-05-06 12:02:00,64.8,61.8,29.92,South,172,16.0,19.0,90,0.27,,---,0.15,VWS V14.00,2013-05-06 16:02:00,
2013-05-06 12:07:00,63.8,61.4,29.92,ESE,110,11.0,20.0,92,0.49,,---,0.21,VWS V14.00,2013-05-06 16:07:00,
2013-05-06 12:12:00,63.7,61.6,29.91,SE,145,7.0,20.0,93,0.15,,---,0.22,VWS V14.00,2013-05-06 16:12:00,
2013-05-06 12:17:00,64.0,61.9,29.91,SE,125,9.0,20.0,93,0.07,,---,0.22,VWS V14.00,2013-05-06 16:17:00,
2013-05-06 12:22:00,64.7,62.6,29.91,ESE,116,16.0,20.0,93,0.04,,---,0.22,VWS V14.00,2013-05-06 16:22:00,
2013-05-06 12:27:00,65.0,62.3,29.91,SSE,159,13.0,20.0,91,0.00,,---,0.22,VWS V14.00,2013-05-06 16:27:00,
2013-05-06 12:32:00,65.3,63.2,29.91,East,98,9.0,14.0,93,0.00,,---,0.22,VWS V14.00,2013-05-06 16:32:00,
2013-05-06 12:37:00,65.6,63.2,29.91,SE,130,13.0,15.0,92,0.00,,---,0.22,VWS V14.00,2013-05-06 16:37:00,
2013-05-06 12:42:00,65.6,62.9,29.90,SE,143,10.0,18.0,91,0.00,,---,0.22,VWS V14.00,2013-05-06 16:42:00,
2013-05-06 12:47:00,66.2,63.8,29.91,SSE,155,12.0,18.0,92,0.00,,---,0.22,VWS V14.00,2013-05-06 16:47:00,
2013-05-06 12:52:00,66.2,63.5,29.90,SE,133,12.0,19.0,91,0.00,,---,0.22,VWS V14.00,2013-05-06 16:52:00,
2013-05-06 12:57:00,67.0,63.7,29.90,SE,137,9.0,19.0,89,0.00,,---,0.22,VWS V14.00,2013-05-06 16:57:00,
2013-05-06 13:02:00,68.1,64.4,29.90,SSE,154,12.0,23.0,88,0.00,,---,0.22,VWS V14.00,2013-05-06 17:02:00,
2013-05-06 13:07:00,68.3,64.9,29.90,SE,146,14.0,23.0,89,0.00,,---,0.22,VWS V14.00,2013-05-06 17:07:00,
2013-05-06 13:12:00,68.2,64.8,29.89,ESE,114,12.0,23.0,89,0.00,,---,0.22,VWS V14.00,2013-05-06 17:12:00,
2013-05-06 13:17:00,68.3,64.0,29.89,SE,138,16.0,23.0,86,0.00,,---,0.22,VWS V14.00,2013-05-06 17:17:00,
2013-05-06 13:22:00,68.7,64.3,29.89,SE,139,13.0,23.0,86,0.00,,---,0.22,VWS V14.00,2013-05-06 17:22:00,
2013-05-06 13:27:00,69.0,63.6,29.89,ESE,123,14.0,23.0,83,0.00,,---,0.22,VWS V14.00,2013-05-06 17:27:00,
2013-05-06 13:32:00,69.6,64.2,29.89,SE,141,10.0,17.0,83,0.00,,---,0.22,VWS V14.00,2013-05-06 17:32:00,
2013-05-06 13:37:00,70.3,64.6,29.89,SE,125,12.0,17.0,82,0.00,,---,0.22,VWS V14.00,2013-05-06 17:37:00,
2013-05-06 13:42:00,70.3,64.9,29.89,South,177,9.0,17.0,83,0.00,,---,0.22,VWS V14.00,2013-05-06 17:42:00,
2013-05-06 13:47:00,70.8,64.3,29.89,SE,145,10.0,17.0,80,0.00,,---,0.22,VWS V14.00,2013-05-06 17:47:00,
2013-05-06 13:52:00,70.4,62.8,29.89,South,187,10.0,17.0,77,0.00,,---,0.22,VWS V14.00,2013-05-06 17:52:00,
2013-05-06 13:57:00,70.5,61.8,29.89,South,170,9.0,17.0,74,0.00,,---,0.22,VWS V14.00,2013-05-06 17:57:00,
2013-05-06 14:02:00,70.8,61.7,29.89,SSE,148,10.0,14.0,73,0.00,,---,0.22,VWS V14.00,2013-05-06 18:02:00,
2013-05-06 14:07:00,71.0,63.1,29.89,South,188,10.0,14.0,76,0.00,,---,0.22,VWS V14.00,2013-05-06 18:07:00,
2013-05-06 14:12:00,71.3,62.2,29.89,South,179,8.0,14.0,73,0.00,,---,0.22,VWS V14.00,2013-05-06 18:12:00,
2013-05-06 14:17:00,71.9,63.9,29.89,ESE,110,5.0,14.0,76,0.00,,---,0.22,VWS V14.00,2013-05-06 18:17:00,
2013-05-06 14:22:00,71.7,63.7,29.88,SE,144,10.0,14.0,76,0.00,,---,0.22,VWS V14.00,2013-05-06 18:22:00,
2013-05-06 14:27:00,71.3,63.0,29.89,SE,129,8.0,14.0,75,0.00,,---,0.22,VWS V14.00,2013-05-06 18:27:00,
2013-05-06 14:32:00,71.1,63.9,29.89,SE,131,10.0,13.0,78,0.00,,---,0.22,VWS V14.00,2013-05-06 18:32:00,
2013-05-06 14:37:00,71.4,63.5,29.89,South,174,8.0,13.0,76,0.00,,---,0.22,VWS V14.00,2013-05-06 18:37:00,
2013-05-06 14:42:00,71.6,64.0,29.89,SSE,150,9.0,13.0,77,0.00,,---,0.22,VWS V14.00,2013-05-06 18:42:00,
2013-05-06 14:47:00,71.6,64.0,29.89,South,171,11.0,13.0,77,0.00,,---,0.22,VWS V14.00,2013-05-06 18:47:00,
2013-05-06 14:52:00,72.1,64.1,29.89,South,182,7.0,14.0,76,0.00,,---,0.22,VWS V14.00,2013-05-06 18:52:00,
2013-05-06 14:57:00,72.4,63.7,29.89,SSE,160,10.0,15.0,74,0.00,,---,0.22,VWS V14.00,2013-05-06 18:57:00,
2013-05-06 15:02:00,72.4,62.5,29.88,South,174,10.0,13.0,71,0.00,,---,0.22,VWS V14.00,2013-05-06 19:02:00,
2013-05-06 15:07:00,72.4,62.9,29.88,SE,143,9.0,14.0,72,0.00,,---,0.22,VWS V14.00,2013-05-06 19:07:00,
2013-05-06 15:12:00,71.6,63.3,29.88,SE,139,10.0,15.0,75,0.00,,---,0.22,VWS V14.00,2013-05-06 19:12:00,
2013-05-06 15:17:00,71.6,63.6,29.88,SE,137,11.0,16.0,76,0.00,,---,0.22,VWS V14.00,2013-05-06 19:17:00,
2013-05-06 15:22:00,71.3,63.3,29.88,SE,134,11.0,16.0,76,0.00,,---,0.22,VWS V14.00,2013-05-06 19:22:00,
2013-05-06 15:27:00,70.7,63.1,29.87,SSE,147,7.0,16.0,77,0.00,,---,0.22,VWS V14.00,2013-05-06 19:27:00,
2013-05-06 15:32:00,71.2,62.5,29.87,SSW,197,8.0,15.0,74,0.00,,---,0.22,VWS V14.00,2013-05-06 19:32:00,
2013-05-06 15:37:00,71.3,61.8,29.86,South,177,8.0,15.0,72,0.00,,---,0.22,VWS V14.00,2013-05-06 19:37:00,
2013-05-06 15:42:00,71.9,62.0,29.86,South,177,7.0,15.0,71,0.00,,---,0.22,VWS V14.00,2013-05-06 19:42:00,
2013-05-06 15:47:00,72.6,62.3,29.86,SSW,198,9.0,15.0,70,0.00,,---,0.22,VWS V14.00,2013-05-06 19:47:00,
2013-05-06 15:52:00,72.8,61.2,29.86,South,181,6.0,15.0,67,0.00,,---,0.22,VWS V14.00,2013-05-06 19:52:00,
2013-05-06 15:57:00,72.8,61.2,29.86,SSE,150,8.0,15.0,67,0.00,,---,0.22,VWS V14.00,2013-05-06 19:57:00,
2013-05-06 16:02:00,72.7,61.5,29.86,SE,135,9.0,15.0,68,0.00,,---,0.22,VWS V14.00,2013-05-06 20:02:00,
2013-05-06 16:07:00,72.7,61.5,29.86,SSE,158,7.0,15.0,68,0.00,,---,0.22,VWS V14.00,2013-05-06 20:07:00,
2013-05-06 16:12:00,72.6,62.3,29.86,ESE,111,12.0,16.0,70,0.00,,---,0.22,VWS V14.00,2013-05-06 20:12:00,
2013-05-06 16:17:00,72.2,63.5,29.86,ESE,111,12.0,17.0,74,0.00,,---,0.22,VWS V14.00,2013-05-06 20:17:00,
2013-05-06 16:22:00,71.5,63.2,29.86,SE,136,8.0,17.0,75,0.00,,---,0.22,VWS V14.00,2013-05-06 20:22:00,
2013-05-06 16:27:00,70.6,62.3,29.86,SSE,152,7.0,17.0,75,0.00,,---,0.22,VWS V14.00,2013-05-06 20:27:00,
2013-05-06 16:32:00,70.7,62.4,29.86,SE,141,12.0,12.0,75,0.00,,---,0.22,VWS V14.00,2013-05-06 20:32:00,
2013-05-06 16:37:00,70.6,62.3,29.86,SE,143,10.0,13.0,75,0.00,,---,0.22,VWS V14.00,2013-05-06 20:37:00,
2013-05-06 16:42:00,71.0,62.7,29.86,SSE,165,7.0,14.0,75,0.00,,---,0.22,VWS V14.00,2013-05-06 20:42:00,
2013-05-06 16:47:00,71.2,62.9,29.86,SE,138,13.0,16.0,75,0.00,,---,0.22,VWS V14.00,2013-05-06 20:47:00,
2013-05-06 16:52:00,70.7,62.8,29.86,SE,127,12.0,17.0,76,0.00,,---,0.22,VWS V14.00,2013-05-06 20:52:00,
2013-05-06 16:57:00,70.6,62.7,29.86,SSE,152,9.0,17.0,76,0.00,,---,0.22,VWS V14.00,2013-05-06 20:57:00,
2013-05-06 17:02:00,70.3,62.8,29.86,SSE,149,11.0,13.0,77,0.00,,---,0.22,VWS V14.00,2013-05-06 21:02:00,
2013-05-06 17:07:00,70.1,62.6,29.86,SE,130,11.0,14.0,77,0.00,,---,0.22,VWS V14.00,2013-05-06 21:07:00,
2013-05-06 17:12:00,70.3,62.8,29.86,SE,144,9.0,14.0,77,0.00,,---,0.22,VWS V14.00,2013-05-06 21:12:00,
2013-05-06 17:17:00,70.2,62.3,29.86,SE,138,10.0,14.0,76,0.00,,---,0.22,VWS V14.00,2013-05-06 21:17:00,
2013-05-06 17:22:00,70.1,62.2,29.86,SE,139,8.0,14.0,76,0.00,,---,0.22,VWS V14.00,2013-05-06 21:22:00,
2013-05-06 17:27:00,70.1,62.2,29.86,SSE,158,7.0,14.0,76,0.00,,---,0.22,VWS V14.00,2013-05-06 21:27:00,
2013-05-06 17:32:00,70.4,62.1,29.86,SSE,153,7.0,12.0,75,0.00,,---,0.22,VWS V14.00,2013-05-06 21:32:00,
2013-05-06 17:37:00,70.4,61.7,29.86,South,177,8.0,13.0,74,0.00,,---,0.22,VWS V14.00,2013-05-06 21:37:00,
2013-05-06 17:42:00,70.2,61.5,29.86,South,179,7.0,13.0,74,0.00,,---,0.22,VWS V14.00,2013-05-06 21:42:00,
2013-05-06 17:47:00,70.3,61.6,29.86,SE,143,8.0,13.0,74,0.00,,---,0.22,VWS V14.00,2013-05-06 21:47:00,
2013-05-06 17:52:00,70.5,62.2,29.86,SE,133,9.0,13.0,75,0.00,,---,0.22,VWS V14.00,2013-05-06 21:52:00,
2013-05-06 17:57:00,70.1,61.8,29.86,SSE,150,8.0,13.0,75,0.00,,---,0.22,VWS V14.00,2013-05-06 21:57:00,
2013-05-06 18:02:00,69.6,62.1,29.86,SE,143,9.0,9.0,77,0.00,,---,0.22,VWS V14.00,2013-05-06 22:02:00,
2013-05-06 18:07:00,69.4,62.6,29.87,SE,143,8.0,11.0,79,0.00,,---,0.22,VWS V14.00,2013-05-06 22:07:00,
2013-05-06 18:12:00,68.7,61.6,29.87,SE,129,9.0,12.0,78,0.00,,---,0.22,VWS V14.00,2013-05-06 22:12:00,
2013-05-06 18:17:00,68.2,61.5,29.87,SE,140,6.0,13.0,79,0.00,,---,0.22,VWS V14.00,2013-05-06 22:17:00,
2013-05-06 18:22:00,68.0,62.0,29.86,SE,142,5.0,13.0,81,0.00,,---,0.22,VWS V14.00,2013-05-06 22:22:00,
2013-05-06 18:27:00,68.0,62.0,29.86,SE,139,6.0,13.0,81,0.00,,---,0.22,VWS V14.00,2013-05-06 22:27:00,
2013-05-06 18:32:00,68.2,62.5,29.86,ESE,116,6.0,9.0,82,0.00,,---,0.22,VWS V14.00,2013-05-06 22:32:00,
2013-05-06 18:37:00,68.5,62.5,29.86,ESE,116,4.0,9.0,81,0.00,,---,0.22,VWS V14.00,2013-05-06 22:37:00,
2013-05-06 18:42:00,68.7,62.6,29.86,ESE,118,5.0,9.0,81,0.00,,---,0.22,VWS V14.00,2013-05-06 22:42:00,
2013-05-06 18:47:00,68.7,62.6,29.86,East,93,4.0,9.0,81,0.00,,---,0.22,VWS V14.00,2013-05-06 22:47:00,
2013-05-06 18:52:00,68.7,62.3,29.87,ESE,115,6.0,9.0,80,0.00,,---,0.22,VWS V14.00,2013-05-06 22:52:00,
2013-05-06 18:58:00,68.4,62.3,29.87,ESE,118,6.0,9.0,81,0.00,,---,0.22,VWS V14.00,2013-05-06 22:58:00,
2013-05-06 19:03:00,68.2,62.2,29.87,ESE,120,6.0,7.0,81,0.00,,---,0.22,VWS V14.00,2013-05-06 23:03:00,
2013-05-06 19:08:00,68.1,62.1,29.87,SE,137,4.0,8.0,81,0.00,,---,0.22,VWS V14.00,2013-05-06 23:08:00,
2013-05-06 19:13:00,68.1,62.1,29.87,SE,146,3.0,8.0,81,0.00,,---,0.22,VWS V14.00,2013-05-06 23:13:00,
2013-05-06 19:18:00,68.1,61.7,29.87,SE,139,5.0,8.0,80,0.00,,---,0.22,VWS V14.00,2013-05-06 23:18:00,
2013-05-06 19:23:00,68.0,62.0,29.87,SE,135,4.0,8.0,81,0.00,,---,0.22,VWS V14.00,2013-05-06 23:23:00,
2013-05-06 19:28:00,67.7,61.7,29.87,ESE,116,5.0,8.0,81,0.00,,---,0.22,VWS V14.00,2013-05-06 23:28:00,
2013-05-06 19:33:00,67.4,61.4,29.87,SE,130,2.0,5.0,81,0.00,,---,0.22,VWS V14.00,2013-05-06 23:33:00,
2013-05-06 19:38:00,67.1,61.1,29.87,SSE,166,4.0,5.0,81,0.00,,---,0.22,VWS V14.00,2013-05-06 23:38:00,
2013-05-06 19:43:00,66.7,60.3,29.88,South,186,5.0,8.0,80,0.00,,---,0.22,VWS V14.00,2013-05-06 23:43:00,
2013-05-06 19:48:00,66.4,60.4,29.88,South,183,6.0,8.0,81,0.00,,---,0.22,VWS V14.00,2013-05-06 23:48:00,
2013-05-06 19:53:00,66.0,60.0,29.88,South,177,6.0,9.0,81,0.00,,---,0.22,VWS V14.00,2013-05-06 23:53:00,
2013-05-06 19:58:00,65.7,59.7,29.88,South,176,4.0,5.0,81,0.00,,---,0.22,VWS V14.00,2013-05-06 23:58:00,
2013-05-06 20:03:00,65.5,59.5,29.88,SSE,168,6.0,7.0,81,0.00,,---,0.22,VWS V14.00,2013-05-07 00:03:00,
2013-05-06 20:08:00,65.2,59.2,29.88,South,174,5.0,7.0,81,0.00,,---,0.22,VWS V14.00,2013-05-07 00:08:00,
2013-05-06 20:13:00,65.1,59.1,29.88,South,171,6.0,7.0,81,0.00,,---,0.22,VWS V14.00,2013-05-07 00:13:00,
2013-05-06 20:18:00,65.1,59.5,29.88,South,177,4.0,7.0,82,0.00,,---,0.22,VWS V14.00,2013-05-07 00:18:00,
2013-05-06 20:23:00,65.1,59.5,29.88,South,182,4.0,8.0,82,0.00,,---,0.22,VWS V14.00,2013-05-07 00:23:00,
2013-05-06 20:28:00,65.0,59.4,29.88,South,185,5.0,5.0,82,0.00,,---,0.22,VWS V14.00,2013-05-07 00:28:00,
2013-05-06 20:33:00,64.9,59.6,29.88,South,180,5.0,6.0,83,0.00,,---,0.22,VWS V14.00,2013-05-07 00:33:00,
2013-05-06 20:38:00,64.8,59.5,29.88,South,177,3.0,6.0,83,0.00,,---,0.22,VWS V14.00,2013-05-07 00:38:00,
2013-05-06 20:43:00,64.7,59.4,29.88,SSE,166,6.0,7.0,83,0.00,,---,0.22,VWS V14.00,2013-05-07 00:43:00,
2013-05-06 20:48:00,64.6,59.7,29.89,South,172,5.0,7.0,84,0.00,,---,0.22,VWS V14.00,2013-05-07 00:48:00,
2013-05-06 20:53:00,64.6,59.7,29.89,South,170,6.0,7.0,84,0.00,,---,0.22,VWS V14.00,2013-05-07 00:53:00,
2013-05-06 20:58:00,64.5,59.6,29.89,South,170,6.0,7.0,84,0.00,,---,0.22,VWS V14.00,2013-05-07 00:58:00,
2013-05-06 21:03:00,64.5,59.6,29.90,SSE,167,6.0,7.0,84,0.00,,---,0.22,VWS V14.00,2013-05-07 01:03:00,
2013-05-06 21:08:00,64.3,59.4,29.90,South,190,4.0,8.0,84,0.00,,---,0.22,VWS V14.00,2013-05-07 01:08:00,
2013-05-06 21:13:00,64.0,59.1,29.90,SSW,209,4.0,8.0,84,0.00,,---,0.22,VWS V14.00,2013-05-07 01:13:00,
2013-05-06 21:18:00,64.0,59.1,29.90,SSW,193,6.0,10.0,84,0.00,,---,0.22,VWS V14.00,2013-05-07 01:18:00,
2013-05-06 21:23:00,63.8,58.5,29.91,South,187,5.0,10.0,83,0.00,,---,0.22,VWS V14.00,2013-05-07 01:23:00,
2013-05-06 21:28:00,63.7,58.5,29.91,South,191,5.0,6.0,83,0.00,,---,0.22,VWS V14.00,2013-05-07 01:28:00,
2013-05-06 21:33:00,63.6,58.3,29.91,South,187,6.0,10.0,83,0.00,,---,0.22,VWS V14.00,2013-05-07 01:33:00,
2013-05-06 21:38:00,63.6,58.0,29.91,South,182,5.0,10.0,82,0.00,,---,0.22,VWS V14.00,2013-05-07 01:38:00,
2013-05-06 21:43:00,63.4,58.2,29.91,SSW,195,5.0,10.0,83,0.00,,---,0.22,VWS V14.00,2013-05-07 01:43:00,
2013-05-06 21:48:00,63.1,57.9,29.91,SSW,200,4.0,10.0,83,0.00,,---,0.22,VWS V14.00,2013-05-07 01:48:00,
2013-05-06 21:53:00,62.7,57.8,29.91,SSW,211,4.0,10.0,84,0.00,,---,0.22,VWS V14.00,2013-05-07 01:53:00,
2013-05-06 21:58:00,62.2,57.6,29.91,SSW,212,3.0,4.0,85,0.00,,---,0.22,VWS V14.00,2013-05-07 01:58:00,
2013-05-06 22:03:00,61.8,57.6,29.91,SSW,208,4.0,6.0,86,0.00,,---,0.22,VWS V14.00,2013-05-07 02:03:00,
2013-05-06 22:08:00,61.8,57.6,29.91,South,177,5.0,8.0,86,0.00,,---,0.22,VWS V14.00,2013-05-07 02:08:00,
2013-05-06 22:13:00,61.9,57.7,29.91,SSW,195,4.0,8.0,86,0.00,,---,0.22,VWS V14.00,2013-05-07 02:13:00,
2013-05-06 22:18:00,61.7,57.5,29.92,SSW,195,4.0,8.0,86,0.00,,---,0.22,VWS V14.00,2013-05-07 02:18:00,
2013-05-06 22:23:00,61.4,57.5,29.92,SSW,193,3.0,8.0,87,0.00,,---,0.22,VWS V14.00,2013-05-07 02:23:00,
2013-05-06 22:28:00,61.2,57.6,29.92,SW,215,6.0,7.0,88,0.00,,---,0.22,VWS V14.00,2013-05-07 02:28:00,
2013-05-06 22:33:00,61.3,57.7,29.92,SSW,200,6.0,9.0,88,0.00,,---,0.22,VWS V14.00,2013-05-07 02:33:00,
2013-05-06 22:38:00,61.4,57.5,29.92,SSW,202,6.0,10.0,87,0.00,,---,0.22,VWS V14.00,2013-05-07 02:38:00,
2013-05-06 22:43:00,61.6,57.4,29.92,SSW,197,5.0,10.0,86,0.00,,---,0.22,VWS V14.00,2013-05-07 02:43:00,
2013-05-06 22:48:00,61.3,57.1,29.92,SSW,198,4.0,10.0,86,0.00,,---,0.22,VWS V14.00,2013-05-07 02:48:00,
2013-05-06 22:53:00,61.1,57.2,29.92,SSW,197,3.0,10.0,87,0.00,,---,0.22,VWS V14.00,2013-05-07 02:53:00,
2013-05-06 22:58:00,60.9,57.0,29.92,SSW,197,4.0,5.0,87,0.00,,---,0.22,VWS V14.00,2013-05-07 02:58:00,
2013-05-06 23:03:00,60.7,57.1,29.92,South,191,4.0,6.0,88,0.00,,---,0.22,VWS V14.00,2013-05-07 03:03:00,
2013-05-06 23:08:00,60.7,57.1,29.92,SSW,193,4.0,6.0,88,0.00,,---,0.22,VWS V14.00,2013-05-07 03:08:00,
2013-05-06 23:13:00,60.5,56.9,29.92,SSW,195,5.0,7.0,88,0.00,,---,0.22,VWS V14.00,2013-05-07 03:13:00,
2013-05-06 23:18:00,60.4,56.8,29.92,SSW,193,5.0,7.0,88,0.00,,---,0.22,VWS V14.00,2013-05-07 03:18:00,
2013-05-06 23:23:00,60.4,56.8,29.92,South,181,5.0,7.0,88,0.00,,---,0.22,VWS V14.00,2013-05-07 03:23:00,
2013-05-06 23:28:00,60.3,56.7,29.92,South,189,5.0,5.0,88,0.00,,---,0.22,VWS V14.00,2013-05-07 03:28:00,
2013-05-06 23:33:00,59.9,56.3,29.92,SSW,195,5.0,6.0,88,0.00,,---,0.22,VWS V14.00,2013-05-07 03:33:00,
2013-05-06 23:38:00,59.3,56.1,29.92,SSW,203,4.0,6.0,89,0.00,,---,0.22,VWS V14.00,2013-05-07 03:38:00,
2013-05-06 23:43:00,59.0,56.1,29.92,SSW,211,4.0,6.0,90,0.00,,---,0.22,VWS V14.00,2013-05-07 03:43:00,
2013-05-06 23:48:00,58.9,56.3,29.92,SSW,198,4.0,6.0,91,0.00,,---,0.22,VWS V14.00,2013-05-07 03:48:00,
2013-05-06 23:53:00,58.9,56.3,29.92,SSW,194,3.0,6.0,91,0.00,,---,0.22,VWS V14.00,2013-05-07 03:53:00,
2013-05-06 23:58:00,58.9,56.3,29.92,SSW,193,2.0,3.0,91,0.00,,---,0.00,VWS V14.00,2013-05-07 03:58:00,